Lid_Strength_Index
6 5 5 4 4 4 4 3 3 3 3 3 3 3 3 3 3 4 4 3 5 7 5 4 3 5 5 5 7 5 6 5 6 8 9 8 9 7 8 7 7 8 9 9 9 10 11 4 5 7 6 5 4 5
6 6 5 4 4 4 3 3 2 3 3 2 2 3 3 3 3 3 6 3 3 7 6 3 3 3 3 3 4 4 6 6 5 7 7 7 9 7 7 9 5 9 7 8 7 7 5 4 4 4 4 4 4 4
6 6 5 5 4 4 3 2 2 2 2 2 2 2 2 2 3 3 5 4 4 7 6 4 4 1 0 1 1 6 4 4 4 3 6 7 9 7 9 8 7 5 4 6 6 5 5 4 3 3 3 3 3 3
6 6 5 5 4 3 2 2 2 2 2 2 2 2 2 2 2 3 4 4 4 6 10 6 1 2 0 0 1 2 3 2 3 3 6 7 8 6 8 7 8 6 5 6 6 5 4 4 3 3 3 3 3 3
6 6 5 5 4 3 2 2 2 1 1 1 1 2 1 2 2 3 3 3 3 6 9 7 4 2 1 1 2 2 2 4 5 6 7 7 6 6 6 6 7 5 6 7 7 4 4 4 3 3 3 3 3 3
6 5 5 4 4 3 1 1 1 1 1 1 1 1 2 2 2 4 5 2 2 3 8 10 3 3 2 2 2 3 3 3 4 6 6 5 4 5 8 8 5 4 3 4 5 4 3 3 3 3 3 3 3 3
6 5 5 5 4 2 2 1 1 1 1 1 2 2 2 2 3 6 5 5 3 3 7 10 8 4 3 3 4 4 3 4 4 5 6 6 5 5 7 9 5 4 3 3 3 3 4 3 4 3 3 3 4 3
6 5 5 5 4 2 2 2 2 2 2 2 2 2 3 3 4 5 3 3 2 5 6 10 8 6 3 6 7 4 6 4 5 5 5 6 5 5 8 5 4 4 4 4 3 3 3 3 3 3 3 3 4 4
5 5 5 5 3 2 2 2 1 2 2 2 2 2 3 4 5 4 2 2 2 5 9 8 10 11 5 5 6 6 5 9 4 7 6 5 7 8 6 5 5 4 4 4 4 3 3 4 4 4 3 3 4 4
5 5 5 4 3 2 2 2 1 2 2 3 2 3 5 3 3 3 3 5 7 6 8 10 5 8 5 6 7 8 8 8 10 7 5 7 7 4 4 3 3 4 4 3 4 5 4 4 4 4 3 3 3 3
5 5 5 3 3 2 2 2 2 3 3 2 4 5 2 1 2 4 7 8 8 10 9 7 7 8 4 8 8 6 7 9 11 8 8 8 8 5 3 3 3 3 3 3 3 3 4 4 4 4 3 3 3 3
5 5 4 3 3 2 2 2 2 3 2 4 4 3 2 4 5 8 9 8 10 11 8 9 8 7 7 5 8 7 9 9 13 7 9 10 6 4 4 3 3 3 3 3 3 3 4 4 3 3 3 3 3 3
5 5 3 3 3 2 2 2 2 2 3 3 6 7 7 7 12 12 13 12 11 8 7 7 9 7 7 6 8 9 12 12 7 10 11 8 7 4 3 3 3 2 2 3 3 3 3 3 2 3 3 3 2 3
5 3 3 3 2 2 2 2 2 2 3 7 7 12 9 10 9 10 10 9 7 7 7 7 8 9 8 9 9 12 9 9 13 14 11 9 7 6 5 3 3 4 3 3 4 3 3 3 3 2 2 3 2 3
4 3 3 2 2 2 2 2 2 2 3 6 6 12 9 6 7 6 6 6 4 5 6 7 8 8 9 10 9 10 12 14 13 13 11 7 6 5 6 4 4 4 3 3 3 3 4 3 3 3 2 2 2 2
3 3 2 2 2 2 3 2 1 2 3 5 6 7 6 6 7 6 5 6 4 5 5 7 10 10 11 10 12 12 13 14 12 9 8 6 6 5 5 4 3 3 3 3 3 3 3 3 3 3 2 2 2 2
3 3 2 2 2 2 2 2 2 5 6 6 7 4 5 5 6 6 4 6 2 5 9 9 12 12 9 12 13 10 12 11 9 8 7 5 6 5 4 4 4 4 4 4 3 3 3 2 2 3 4 3 2 2
3 2 2 2 2 2 2 2 4 6 7 5 7 6 5 5 5 5 4 4 5 6 7 9 8 11 12 13 12 10 8 7 6 6 6 5 5 4 4 5 4 4 3 3 3 3 3 3 3 3 3 2 2 2
2 1 2 2 2 3 4 4 3 7 7 5 5 5 5 5 4 3 3 3 4 4 5 7 10 11 11 9 9 8 7 7 7 6 5 5 4 4 3 3 3 3 3 3 3 3 3 2 2 2 2 2 2 2
2 2 2 2 2 3 5 5 2 5 7 6 5 5 5 5 4 4 3 3 5 5 8 9 9 8 8 6 5 6 5 6 6 7 7 5 4 4 4 3 4 3 3 3 3 4 3 2 2 2 2 2 2 2
3 2 2 2 2 3 4 5 5 5 6 7 4 4 6 5 6 6 5 4 6 7 8 6 5 5 4 3 3 4 5 5 6 6 6 6 4 4 4 3 3 3 3 3 3 3 4 3 2 2 2 2 1 1
2 2 2 2 4 4 5 3 5 5 6 6 6 5 7 8 6 6 4 5 6 6 5 5 5 4 4 4 4 3 3 5 5 5 7 6 5 5 4 4 3 3 3 3 3 3 2 2 2 1 2 2 2 1
3 2 2 3 6 7 8 4 7 7 8 7 6 8 8 7 7 4 7 5 5 4 3 3 3 3 3 3 2 3 3 5 5 5 4 4 4 4 4 3 2 3 3 3 2 3 2 4 3 2 1 1 1 2
4 4 6 6 7 9 6 8 6 6 7 8 8 9 8 7 5 8 10 8 5 3 4 3 3 4 3 3 3 3 3 4 5 4 3 4 5 4 3 3 3 2 1 2 2 2 2 2 3 1 1 2 2 2
7 8 8 12 7 9 9 9 8 8 10 8 9 9 7 5 8 9 9 7 5 6 4 3 3 4 4 4 3 3 1 3 4 5 3 3 3 3 3 3 2 2 1 2 3 3 2 2 2 2 2 2 2 2
11 8 10 8 7 8 7 10 9 9 8 9 8 6 5 7 10 11 8 6 6 5 4 4 4 5 5 3 4 4 3 1 2 3 2 2 3 3 3 4 4 3 1 1 1 2 2 2 2 2 2 2 6 2
11 10 7 5 7 7 8 7 7 7 9 9 8 8 8 11 11 8 4 4 4 3 3 3 3 4 4 4 2 2 1 1 2 2 1 1 2 2 2 3 3 2 1 0 1 1 2 2 2 2 2 1 1 2
8 8 10 7 7 7 9 8 9 9 9 7 8 10 11 10 10 6 5 4 4 4 3 3 2 2 2 2 2 1 1 1 1 1 0 1 1 1 1 1 1 7 1 0 1 1 1 2 2 2 2 2 2 1
9 7 7 9 9 9 9 8 8 8 7 8 11 11 10 7 6 6 5 4 3 4 4 4 3 2 2 1 1 1 1 2 3 4 4 4 4 2 1 1 1 1 1 1 6 4 3 1 2 1 1 1 1 1
8 7 10 10 10 10 8 7 8 7 6 7 7 8 8 7 6 4 4 3 3 3 3 3 3 3 4 3 3 3 1 1 1 3 5 5 3 2 2 1 1 1 1 1 1 1 7 2 4 1 2 1 1 2
9 9 9 9 10 8 7 5 5 5 6 7 7 8 8 6 3 3 3 2 3 3 2 4 3 3 3 2 3 3 3 1 1 1 1 2 1 1 1 0 0 0 1 1 1 2 2 2 2 2 2 2 2 3
9 9 9 9 8 6 4 5 5 6 5 6 7 5 5 6 6 3 2 2 3 4 4 3 3 3 1 0 1 1 7 1 1 0 1 1 1 1 1 1 1 1 1 1 1 1 1 2 2 2 2 2 2 2
6 7 7 7 8 7 5 6 6 6 5 6 7 5 5 6 7 3 1 1 2 2 3 2 1 1 1 1 1 1 4 0 4 10 10 10 11 6 1 1 1 1 1 1 2 2 2 2 2 2 3 3 2 2